Showing default

SARA, 21578

Orbit data source: Space-Track

SARA, 21578 is a payload satellite owned by ESIEESPACE (FR) in SSO that was launched on Wed, 17 Jul 1991 UTC via an ARIANE 40 launch vehicle from the French Guiana (FRGUI). Payload-class satellites include a variety of spacecraft equipped with specific instruments for various scientific and technological missions. These include communications satellites like Starlink; space stations such as the ISS; scientific satellites like the Hubble; Earth observation satellites from companies like Planet Labs, Umbra, and HawkEye 360; GPS; miniature CubeSats for education and research; and military/defense satellites.

Loading next visibility...
Identifier
21578, 1991-050E
Orbit
SSO
Country
Flag of FRFR
Related business
Manufacturer
ESIEESPACE
Mission
Amateur Astronomy
Bus & Motor
SARA, Unknown motor
Mass
18 kg wet, 18 kg dry
Launch date (UTC)
1991-07-17 (35 years ago)
Launch vehicle
ARIANE 40
Launch site
French Guiana (FRGUI)
Object type
Payload
Rocket body
Debris
Shape & HBR
Hex Poly, 0.2 m
Radar Cross Section
0.231 m², Medium (>0.1 m² and < 1m²)

Expand to show TLE details & history
Last TLE update: 2 days ago

TLE from 2 days ago
0 SARA
1 21578U 91050E   26171.40726450  .00000571  00000-0  13086-3 0  9997
2 21578  98.0947 219.8839 0003441 134.0287 240.3829 14.59138850846784
Epoch: 2026-06-20T09:46Z
TLE epoch observation values (Epoch: 2026-06-20T09:46:27.652Z)
Latitude
14.20095°
Longitude
162.59485°
Altitude
699.415 km
Speed
7.507 km/s
True Right ascension
14h 31m 19s
True Declination
14° 07' 07"
Sunlit
Object was in full shadow at epoch
Visualization orbit readout
Latitude
Unknown
Longitude
Unknown
Altitude
Unknown
Speed
Unknown
Apparent Right ascension
Unknown
Apparent Declination
Unknown
Sunlit
N/A
Visualization observer readout
Local Sidereal Time
23:09:12
Azimuth
Unknown
Elevation
Unknown
Doppler factor
Unknown
Orbital elements
Apogee altitude
695.467 km
Perigee altitude
690.6 km
Semi-major axis
7,071.17 km
Eccentricity
0.00034
Inclination
98.0947°
RAAN
219.8839°
Arg. of periapsis
134.0287°
True anomaly
240.34863°
Mean anomaly
240.3829°
Eccentric anomaly
240.36576°
Mean motion
3.65011 °/min
Orbital period
98.63 mins
BSTAR
0.00013086
Loading maneuver chart data...
Computing Atmospheric mass density...
Loading historical data...
Loading historical data...
Loading historical data...
Loading historical data...
Loading historical data...
Loading historical data...
Loading historical data...

Documentation

Showing up to 5 results
|